{"data":{"norad_id":40069,"epoch":"2026-05-25T04:45:40.876992Z","epoch_age_seconds":57598,"freshness":"FRESH","line1":"1 40069U 14037A   26145.19838978  .00000469  00000+0  23357-3 0  9996","line2":"2 40069  98.5104 121.7533 0006928 100.0753 260.1206 14.21455331616055","mean_motion":14.21455331,"eccentricity":0.0006928,"inclination_deg":98.5104,"raan_deg":121.7533,"arg_perigee_deg":100.0753,"mean_anomaly_deg":260.1206,"bstar":0.00023357,"rev_number":61605,"period_min":101.30462551974,"perigee_km":815.44800767692,"apogee_km":825.42234928743,"semimajor_km":7198.5721784822,"source":"CELESTRAK","updated_at":"2026-05-25T13:38:11.914915Z"}}